CW5882 Weather Reports


time (UTC)temp
C
wind
direction
speed
KPH
gust
KPH
rain 1hr
cm
rain 24hr
cm
rain mn
cm
humidity
%
barometer
mb
20260504030248 8 0.0 0.0 0.00 0.00 0.00 64 1015.2
20260504025246 8 0.0 0.0 0.00 0.00 0.00 61 1014.6
20260504024307 8 0.0 1.6 0.00 0.00 0.00 62 1014.7
20260504023254 10 152 0.0 1.6 0.00 0.00 0.00 59 1014.9
20260504022241 10 0.0 1.6 0.00 0.00 0.00 56 1014.9
20260504021319 10 0.0 1.6 0.00 0.00 0.00 55 1014.9
20260504020255 10 0.0 1.6 0.00 0.00 0.00 55 1015.2
20260504015239 10 230 1.6 3.2 0.00 0.00 0.00 55 1015.1
20260504014221 10 0.0 1.6 0.00 0.00 0.00 55 1014.8
20260504013310 10 172 0.0 3.2 0.00 0.00 0.00 54 1014.8
20260504012256 10 171 0.0 1.6 0.00 0.00 0.00 54 1014.7
20260504011231 10 0.0 1.6 0.00 0.00 0.00 54 1014.7
20260504010319 10 190 0.0 1.6 0.00 0.00 0.00 55 1014.9
20260504005317 10 0.0 0.0 0.00 0.00 0.00 54 1014.8
20260504004240 11 0.0 1.6 0.00 0.00 0.00 53 1014.5
20260504003227 11 163 0.0 1.6 0.00 0.00 0.00 52 1014.7
20260504002336 11 202 1.6 3.2 0.00 0.00 0.00 52 1014.5
20260504001303 11 161 0.0 1.6 0.00 0.00 0.00 52 1014.6
20260504000248 11 0.0 0.0 0.00 0.00 0.00 51 1014.3
20260503235234 12 156 1.6 3.2 0.00 0.00 0.00 48 1014.5
20260503234219 12 148 1.6 4.8 0.00 0.00 0.00 47 1014.4
20260503233308 12 147 0.0 1.6 0.00 0.00 0.00 48 1014.5
20260503232255 13 0.0 3.2 0.00 0.00 0.00 46 1014.4
20260503231239 13 175 3.2 4.8 0.00 0.00 0.00 46 1014.6
20260503230242 13 220 1.6 4.8 0.00 0.00 0.00 47 1014.3
20260503225310 13 176 0.0 3.2 0.00 0.00 0.00 46 1014.8
20260503224258 13 235 0.0 3.2 0.00 0.00 0.00 45 1014.8
20260503223232 13 240 3.2 4.8 0.00 0.00 0.00 43 1014.6
20260503222215 13 258 3.2 6.4 0.00 0.00 0.00 43 1014.7
20260503221304 13 166 3.2 12.9 0.00 0.00 0.00 43 1014.6
20260503220246 14 168 1.6 12.9 0.00 0.00 0.00 44 1014.6
20260503215232 14 227 0.0 14.5 0.00 0.00 0.00 42 1014.4
20260503214237 15 308 3.2 6.4 0.00 0.00 0.00 40 1014.9
20260503213254 14 265 1.6 4.8 0.00 0.00 0.00 44 1014.6
20260503212239 14 169 4.8 14.5 0.00 0.00 0.00 41 1014.8
20260503211225 13 241 1.6 11.3 0.00 0.00 0.00 42 1014.9
20260503210311 14 324 3.2 6.4 0.00 0.00 0.00 42 1015.1
20260503205252 15 222 1.6 6.4 0.00 0.00 0.00 41 1014.6
20260503204230 13 336 1.6 6.4 0.00 0.00 0.00 43 1014.8
20260503202249 14 180 1.6 4.8 0.00 0.00 0.00 43 1015.0
20260503201236 13 222 1.6 9.7 0.00 0.00 0.00 43 1015.2
20260503200335 15 312 4.8 11.3 0.00 0.00 0.00 42 1015.3
20260503195248 15 140 0.0 6.4 0.00 0.00 0.00 43 1015.3
20260503194236 14 218 1.6 4.8 0.00 0.00 0.00 44 1015.6
20260503193220 15 188 3.2 9.7 0.00 0.00 0.00 42 1015.9
20260503192255 13 159 3.2 6.4 0.00 0.00 0.00 44 1016.0
20260503191232 14 205 3.2 11.3 0.00 0.00 0.00 43 1015.9
20260503190218 13 219 3.2 4.8 0.00 0.00 0.00 44 1016.2
20260503185305 13 324 0.0 6.4 0.00 0.00 0.00 43 1016.0
20260503184254 14 309 4.8 14.5 0.00 0.00 0.00 42 1016.3
20260503183227 13 242 3.2 11.3 0.00 0.00 0.00 45 1016.5
20260503182215 14 324 3.2 12.9 0.00 0.00 0.00 44 1016.6
20260503181303 13 0.0 3.2 0.00 0.00 0.00 45 1016.6
20260503180250 13 298 3.2 9.7 0.00 0.00 0.00 42 1016.7
20260503175311 13 175 6.4 12.9 0.00 0.00 0.00 44 1017.1
20260503174217 13 321 6.4 24.1 0.00 0.00 0.00 43 1016.7
20260503173312 13 171 3.2 6.4 0.00 0.00 0.00 45 1016.8
20260503172238 13 187 4.8 11.3 0.00 0.00 0.00 44 1017.3
20260503171340 12 185 1.6 6.4 0.00 0.00 0.00 43 1017.0
20260503170303 12 235 3.2 11.3 0.00 0.00 0.00 43 1017.4
20260503150316 10 10 1.6 4.8 0.00 0.00 0.00 51 1018.3
20260503140220 9 323 1.6 6.4 0.00 0.00 0.00 58 1018.6
20260503131253 7 207 1.6 4.8 0.00 0.00 0.00 70 1018.5
20260503130239 6 170 3.2 4.8 0.00 0.00 0.00 73 1018.4
20260503110217 0 0.0 0.0 0.00 0.00 0.00 100 1017.5
20260503090310 -1 0.0 0.0 0.00 0.00 0.00 98 1017.2
20260503081252 0 0.0 0.0 0.00 0.00 0.00 97 1017.0
20260503080239 0 0.0 0.0 0.00 0.00 0.00 96 1016.7
20260503072232 0 0.0 0.0 0.00 0.00 0.00 94 1016.7
20260503071320 0 0.0 0.0 0.00 0.00 0.00 94 1016.8
20260503070256 0 0.0 0.0 0.00 0.00 0.00 94 1016.7
20260503060329 1 0.0 0.0 0.00 0.00 0.00 90 1016.8
20260503054247 1 0.0 0.0 0.00 0.00 0.00 92 1016.8
20260503053322 2 0.0 0.0 0.00 0.00 0.00 91 1016.8
20260503052249 2 0.0 0.0 0.00 0.00 0.00 91 1017.6
20260503051235 2 0.0 0.0 0.00 0.00 0.00 92 1016.9
20260503050222 2 0.0 0.0 0.00 0.00 0.00 92 1017.0
20260503044235 2 0.0 0.0 0.00 0.00 0.00 89 1017.0
20260503043221 2 0.0 0.0 0.00 0.00 0.00 89 1017.4
20260503042304 2 0.0 0.0 0.00 0.00 0.00 88 1017.6
20260503041248 2 0.0 0.0 0.00 0.00 0.00 88 1017.2
20260503040226 2 0.0 0.0 0.00 0.00 0.00 87 1017.1
20260503035312 2 0.0 0.0 0.00 0.00 0.00 88 1017.3
20260503034259 2 0.0 0.0 0.00 0.00 0.00 86 1017.2
20260503033245 2 0.0 0.0 0.00 0.00 0.00 87 1017.3
20260503032233 3 0.0 0.0 0.00 0.00 0.00 85 1017.6
20260503031312 3 0.0 1.6 0.00 0.00 0.00 83 1017.5